"Pseudo-MPEC" for P12oZh3

Created 2026 Aug 8 13:35:07 UT using Find_Orb

Click here for an explanation of pseudo-MPECs

 
 Astrometry: 
     P12oZh3*0C2026 08 08.41373520 19 30.153-03 48 41.94   ~88Co 20.31wXNEOCPF51
     P12oZh3 0C2026 08 08.42583720 19 28.800-03 48 21.87   ~88Co 20.37wXNEOCPF51
     P12oZh3 0C2026 08 08.43790520 19 27.451-03 48 01.84   ~88Co 20.22wXNEOCPF51

Station data:
(F51) Pan-STARRS 1, Haleakala  (N20.707234 W156.255910)  US/Hawaii.
   Observers J. Herman, T. Lowe, P. Minguez, A. Schultz, I. Smith. Measurers
   K. Chambers, T. de Boer, J. Fairlamb, H. Gao, M. Huber, C.-C. Lin, E.
   Magnier, Y. Ramanjooloo, R. Wainscoat, R. Weryk. 1.8-m Ritchey-Chrétien +
   CCD.

Orbital elements:  P12oZh3
   Perihelion 2026 May 25.633010 +/- 69.9 TT = 15:11:32.0 (JD 2461186.133010)
Epoch 2026 Aug  8.0 TT = JDT 2461260.5   Earth MOID: 0.1599   Ma: 0.0987
M   5.979944542 +/- 26              (J2000 ecliptic)             AutoNEOCP
n   0.080411275 +/- 0.169           Peri.  285.958376 +/- 80
a   5.316078875 +/- 7.46            Node   303.799317 +/- 41
e   0.83766452 +/- 0.27             Incl.   28.529329 +/- 15
P  12.25708                H 20.28  G  0.15   U 11.6  SR
q 0.862988202 +/- 0.465    Q 9.769169549 +/- 43
From 3 observations 2026 Aug. 8 (34.8 min); mean residual 0".01
Residuals in arcseconds: 
260808 F51  .01-  .00     260808 F51  .01+  .01-    260808 F51  .01-  .00     

Ephemerides (geocentric):
Date (UTC) HH   RA             Dec           delta  r     elong  mag " sig PA
---- --------  ------------   ------------  ------ ------ -----  --- --------
2026 08 08 14  20 19 12.634   -03 43 54.47  .46480 1.4630 162.0 20.2  227 110
2026 08 08 15  20 19 08.340   -03 42 46.27  .46537 1.4635 161.9 20.2  274 107
2026 08 08 16  20 19 04.059   -03 41 38.28  .46595 1.4639 161.9 20.2  321 104
2026 08 08 17  20 18 59.791   -03 40 30.48  .46652 1.4644 161.8 20.2  369 102
2026 08 08 18  20 18 55.535   -03 39 22.88  .46710 1.4649 161.8 20.2  419 100
2026 08 08 19  20 18 51.293   -03 38 15.48  .46768 1.4654 161.7 20.2  468  99
2026 08 08 20  20 18 47.063   -03 37 08.28  .46825 1.4658 161.7 20.2  519  98
2026 08 08 21  20 18 42.846   -03 36 01.27  .46883 1.4663 161.6 20.2  570  98
2026 08 08 22  20 18 38.642   -03 34 54.46  .46941 1.4668 161.6 20.2  621  97
2026 08 08 23  20 18 34.451   -03 33 47.85  .46998 1.4673 161.5 20.2  673  96
2026 08 09 00  20 18 30.272   -03 32 41.43  .47056 1.4677 161.5 20.2  726  96
2026 08 09 01  20 18 26.106   -03 31 35.20  .47114 1.4682 161.4 20.2  780  96
2026 08 09 02  20 18 21.952   -03 30 29.17  .47172 1.4687 161.4 20.2  834  95
2026 08 09 03  20 18 17.811   -03 29 23.33  .47230 1.4692 161.4 20.2  889  95
2026 08 09 04  20 18 13.683   -03 28 17.69  .47288 1.4696 161.3 20.2  944  95
2026 08 09 05  20 18 09.567   -03 27 12.23  .47346 1.4701 161.3 20.3 1000  95
2026 08 09 06  20 18 05.463   -03 26 06.97  .47404 1.4706 161.2 20.3 1058  95
2026 08 09 07  20 18 01.372   -03 25 01.90  .47462 1.4711 161.2 20.3 1115  94
2026 08 09 08  20 17 57.294   -03 23 57.02  .47520 1.4715 161.1 20.3 1174  94
2026 08 09 09  20 17 53.227   -03 22 52.33  .47578 1.4720 161.1 20.3 1234  94
2026 08 09 10  20 17 49.174   -03 21 47.83  .47636 1.4725 161.0 20.3 1294  94
2026 08 09 11  20 17 45.132   -03 20 43.51  .47694 1.4730 161.0 20.3 1355  94
2026 08 09 12  20 17 41.103   -03 19 39.39  .47753 1.4734 160.9 20.3 1418  94
2026 08 09 13  20 17 37.086   -03 18 35.45  .47811 1.4739 160.9 20.3 1481  94
2026 08 09 14  20 17 33.081   -03 17 31.70  .47869 1.4744 160.8 20.3 1546  94
2026 08 09 15  20 17 29.089   -03 16 28.14  .47927 1.4749 160.8 20.3 1611  94
2026 08 09 16  20 17 25.108   -03 15 24.76  .47986 1.4753 160.8 20.3 1678  94
2026 08 09 17  20 17 21.140   -03 14 21.57  .48044 1.4758 160.7 20.3 1746  94
2026 08 09 18  20 17 17.184   -03 13 18.56  .48103 1.4763 160.7 20.3 1815  95
2026 08 09 19  20 17 13.240   -03 12 15.74  .48161 1.4768 160.6 20.3 1885  95
2026 08 09 20  20 17 09.308   -03 11 13.10  .48219 1.4772 160.6 20.3 1957  95
2026 08 09 21  20 17 05.388   -03 10 10.64  .48278 1.4777 160.5 20.3 2031  95
2026 08 09 22  20 17 01.480   -03 09 08.37  .48336 1.4782 160.5 20.3 2106  95
2026 08 09 23  20 16 57.585   -03 08 06.28  .48395 1.4787 160.4 20.3 2183  95
2026 08 10 00  20 16 53.701   -03 07 04.37  .48454 1.4791 160.4 20.3 2261  95
2026 08 10 01  20 16 49.829   -03 06 02.64  .48512 1.4796 160.3 20.3 2342  96
2026 08 10 02  20 16 45.968   -03 05 01.09  .48571 1.4801 160.3 20.3 2424  96
2026 08 10 03  20 16 42.120   -03 03 59.72  .48630 1.4806 160.2 20.3 2509  96
2026 08 10 04  20 16 38.284   -03 02 58.53  .48688 1.4810 160.2 20.4 2596  96
2026 08 10 05  20 16 34.459   -03 01 57.52  .48747 1.4815 160.2 20.4 2686  97
2026 08 10 06  20 16 30.646   -03 00 56.69  .48806 1.4820 160.1 20.4 2779  97
2026 08 10 07  20 16 26.845   -02 59 56.04  .48865 1.4825 160.1 20.4 2875  97
2026 08 10 08  20 16 23.056   -02 58 55.56  .48924 1.4829 160.0 20.4 2975  98
2026 08 10 09  20 16 19.278   -02 57 55.26  .48983 1.4834 160.0 20.4 3078  98
2026 08 10 10  20 16 15.512   -02 56 55.14  .49041 1.4839 159.9 20.4 3186  98
2026 08 10 11  20 16 11.758   -02 55 55.19  .49100 1.4844 159.9 20.4 3299  99
2026 08 10 12  20 16 08.015   -02 54 55.41  .49159 1.4848 159.8 20.4 3417  99
2026 08 10 13  20 16 04.284   -02 53 55.82  .49218 1.4853 159.8 20.4 3543 100